Weather reports worldwide

Advertisment
Huelva, Spain (8383): temperature & dewpoint: 30.03.2020 21:00:00 - 05.04.2020 21:00:00 (CEST)Huelva, Spain (8383): wind speed: 30.03.2020 21:00:00 - 05.04.2020 21:00:00 (CEST)Huelva, Spain (8383): wind direction: 30.03.2020 21:00:00 - 05.04.2020 21:00:00 (CEST)Huelva, Spain (8383): reduced air pressure: 30.03.2020 21:00:00 - 05.04.2020 21:00:00 (CEST)Huelva, Spain (8383): visibility: 30.03.2020 21:00:00 - 05.04.2020 21:00:00 (CEST)Huelva, Spain (8383): precipitation: 30.03.2020 21:00:00 - 05.04.2020 21:00:00 (CEST)
Date & Time tt [°C] td [°C] ff [km/h] ff [kn] dd ppp [hPa] vv [km] rr [mm]
05.04.2020 21:00:00 17,5 14,0 22 12 S 1017,2 15 0,0
05.04.2020 20:00:00 18,1 13,8 26 14 S 1016,7 20 -
05.04.2020 19:00:00 18,6 14,1 21 11 S 1016,6 16 0,0
05.04.2020 18:00:00 19,2 13,4 28 15 S 1016,6 20 0,0
05.04.2020 17:00:00 19,3 12,6 29 16 S 1016,6 19 -
05.04.2020 16:00:00 19,4 12,4 28 15 S 1016,7 19 0,0
05.04.2020 15:00:00 19,6 12,8 34 18 S 1016,9 19 0,0
05.04.2020 14:00:00 19,2 13,6 29 16 S 1017,2 18 -
05.04.2020 13:00:00 18,7 12,7 34 18 S 1017,2 20 0,0
05.04.2020 12:00:00 18,4 13,5 26 14 SSE 1017,3 20 0,0
05.04.2020 11:00:00 17,1 13,0 21 11 SSE 1017,5 19 -
05.04.2020 10:00:00 14,3 12,0 8 4 E 1016,9 19 0,4
05.04.2020 09:00:00 12,2 10,6 5 3 ENE 1016,9 19 0,0
05.04.2020 08:00:00 11,7 10,3 9 5 NE 1015,9 19 -
05.04.2020 07:00:00 11,4 10,0 8 4 NE 1015,6 19 0,0
05.04.2020 06:00:00 11,3 9,9 9 5 NE 1015,1 19 0,0
05.04.2020 05:00:00 11,4 9,8 9 5 NE 1015,2 18 -
05.04.2020 04:00:00 12,8 10,2 5 3 ENE 1015,4 20 0,0
05.04.2020 03:00:00 12,9 9,9 5 3 ENE 1015,7 20 0,0
05.04.2020 02:00:00 13,9 9,9 8 4 ESE 1015,8 20 -
05.04.2020 01:00:00 13,8 10,0 9 5 SE 1015,4 20 0,0
05.04.2020 00:00:00 14,5 10,5 8 4 ESE 1015,1 20 0,0
04.04.2020 23:00:00 15,6 11,0 8 4 ESE 1015,1 20 -
04.04.2020 22:00:00 15,8 11,2 13 7 SSE 1014,5 20 0,0
04.04.2020 21:00:00 16,8 11,3 16 9 SSE 1013,7 20 0,0
04.04.2020 20:00:00 18,3 12,1 18 10 S 1013,3 20 -
04.04.2020 19:00:00 18,9 12,2 21 11 S 1012,9 20 0,0
04.04.2020 18:00:00 18,5 12,0 21 11 SSE 1012,5 20 0,0
04.04.2020 17:00:00 20,5 11,7 8 4 S 1012,7 20 -
04.04.2020 16:00:00 18,0 11,3 5 3 E 1012,9 20 0,0
04.04.2020 15:00:00 16,4 12,6 9 5 E 1012,8 19 0,0
04.04.2020 14:00:00 15,8 11,0 13 7 E 1012,8 18 -
04.04.2020 13:00:00 15,9 10,4 11 6 E 1013,1 18 0,0
04.04.2020 12:00:00 15,9 8,6 9 5 ESE 1013,4 20 0,0
04.04.2020 11:00:00 13,9 9,1 8 4 E 1013,2 20 -
04.04.2020 10:00:00 12,2 8,8 9 5 ENE 1012,6 20 0,0
04.04.2020 09:00:00 11,2 8,6 8 4 NE 1012,1 20 0,0
04.04.2020 08:00:00 10,7 8,5 8 4 ENE 1011,5 20 -
04.04.2020 07:00:00 10,3 8,4 9 5 ENE 1011,5 20 0,0
04.04.2020 06:00:00 10,1 8,2 9 5 ENE 1011,7 20 0,0
04.04.2020 05:00:00 10,2 8,3 9 5 ENE 1012,0 20 -
04.04.2020 04:00:00 11,1 8,5 5 3 NE 1012,6 20 0,0
04.04.2020 03:00:00 11,6 8,6 8 4 NE 1013,0 20 0,0
04.04.2020 02:00:00 13,3 7,9 8 4 ENE 1013,6 20 -
04.04.2020 01:00:00 14,2 9,2 8 4 ENE 1013,8 20 0,0
04.04.2020 00:00:00 14,9 11,5 5 3 ESE 1014,0 20 0,0
03.04.2020 23:00:00 15,5 12,1 4 2 SSE 1014,1 20 -
03.04.2020 22:00:00 16,2 12,0 9 5 SSW 1013,8 20 0,0
03.04.2020 21:00:00 18,7 11,3 5 3 SW 1013,0 20 0,0
03.04.2020 20:00:00 20,4 10,5 5 3 S 1012,9 20 -
03.04.2020 19:00:00 21,1 10,6 9 5 SSW 1013,1 20 0,0
03.04.2020 18:00:00 21,9 11,3 13 7 SSW 1013,4 20 0,0
03.04.2020 17:00:00 21,8 10,6 11 6 S 1013,7 20 -
03.04.2020 16:00:00 21,8 11,2 16 9 SSW 1014,5 20 0,0
03.04.2020 15:00:00 22,0 12,0 16 9 S 1015,0 20 0,0
03.04.2020 14:00:00 20,8 9,7 8 4 E 1015,7 18 -
03.04.2020 13:00:00 19,2 11,0 5 3 E 1016,4 20 0,0
03.04.2020 12:00:00 16,8 10,6 8 4 NE 1016,9 20 0,0
03.04.2020 11:00:00 13,7 9,5 8 4 NE 1016,9 10 -
03.04.2020 10:00:00 11,1 8,3 8 4 NE 1016,8 20 0,0
03.04.2020 09:00:00 8,2 7,0 5 3 NNE 1016,5 19 0,0
03.04.2020 08:00:00 8,4 7,2 9 5 NNE 1015,8 15 -
03.04.2020 07:00:00 8,7 7,0 9 5 N 1015,3 20 0,0
03.04.2020 06:00:00 8,8 6,9 8 4 N 1015,2 20 0,0
03.04.2020 05:00:00 10,2 7,3 5 3 WNW 1015,4 20 -
03.04.2020 04:00:00 10,4 7,3 4 2 NW 1015,9 20 0,0
03.04.2020 03:00:00 10,1 7,0 4 2 SSW 1016,3 20 0,0
03.04.2020 02:00:00 10,7 7,8 4 2 ENE 1016,6 20 -
03.04.2020 01:00:00 13,0 7,9 9 5 WNW 1016,6 20 0,0
03.04.2020 00:00:00 13,0 7,4 9 5 NW 1016,5 20 0,0
02.04.2020 23:00:00 13,8 7,6 9 5 NW 1016,1 20 -
02.04.2020 22:00:00 15,9 7,1 8 4 NW 1015,4 20 0,0
02.04.2020 21:00:00 16,5 7,2 5 3 WNW 1014,6 20 0,0
02.04.2020 20:00:00 18,2 7,0 9 5 N 1014,3 20 -
02.04.2020 19:00:00 18,7 6,5 15 8 N 1013,9 20 0,0
02.04.2020 18:00:00 18,6 6,4 15 8 N 1013,6 20 0,0
02.04.2020 17:00:00 18,0 6,8 13 7 NW 1013,4 20 -
02.04.2020 16:00:00 17,5 7,0 13 7 NW 1013,3 20 0,0
02.04.2020 15:00:00 16,8 8,2 15 8 NW 1013,4 20 0,0
02.04.2020 14:00:00 16,0 8,7 13 7 WNW 1013,5 25 -
02.04.2020 13:00:00 14,7 8,4 13 7 NW 1013,4 20 0,0
02.04.2020 12:00:00 13,4 9,1 15 8 NW 1013,2 20 0,0
02.04.2020 11:00:00 12,1 9,1 13 7 NW 1012,9 12 -
02.04.2020 10:00:00 10,1 8,9 8 4 WNW 1011,9 20 0,0
02.04.2020 09:00:00 9,3 8,1 8 4 N 1011,2 20 0,0
02.04.2020 08:00:00 9,0 8,1 5 3 N 1010,4 18 -
02.04.2020 07:00:00 9,2 8,3 5 3 NNE 1009,9 20 0,0
02.04.2020 06:00:00 9,7 8,5 9 5 W 1009,9 20 0,0
02.04.2020 05:00:00 9,6 8,5 9 5 W 1010,5 20 -
02.04.2020 04:00:00 10,1 8,7 9 5 W 1010,8 20 0,0
02.04.2020 03:00:00 11,1 9,5 8 4 W 1011,2 20 0,0
02.04.2020 02:00:00 12,3 10,4 13 7 W 1011,7 20 -
02.04.2020 01:00:00 12,8 11,2 11 6 W 1012,0 14 0,0
02.04.2020 00:00:00 12,8 11,2 13 7 W 1012,3 19 0,4
01.04.2020 23:00:00 12,8 11,0 16 9 WSW 1012,3 17 -
01.04.2020 22:00:00 12,6 10,8 9 5 SW 1012,0 16 3,0
01.04.2020 21:00:00 14,1 9,1 13 7 SSW 1011,5 20 0,0
01.04.2020 20:00:00 14,5 8,4 15 8 SW 1011,7 20 -
01.04.2020 19:00:00 15,5 8,9 18 10 SW 1011,8 20 0,0
01.04.2020 18:00:00 15,4 9,3 18 10 SW 1012,0 20 0,2
01.04.2020 17:00:00 13,4 10,2 18 10 SW 1012,7 14 -
01.04.2020 16:00:00 14,8 10,2 15 8 SW 1012,7 20 2,0
01.04.2020 15:00:00 15,8 10,3 24 13 S 1013,0 20 0,0
01.04.2020 14:00:00 14,1 11,6 13 7 S 1013,5 14 -
01.04.2020 13:00:00 13,4 9,4 24 13 S 1013,9 15 0,0
01.04.2020 12:00:00 14,4 7,7 11 6 SE 1013,7 20 0,0
01.04.2020 11:00:00 13,7 6,5 11 6 ESE 1013,7 15 -
01.04.2020 10:00:00 10,9 7,8 8 4 E 1013,5 20 0,0
01.04.2020 09:00:00 8,7 7,9 4 2 NE 1013,2 19 0,0
01.04.2020 08:00:00 8,7 7,5 8 4 NE 1012,4 12 -
01.04.2020 07:00:00 - - - - - - - -
01.04.2020 06:00:00 - - - - - - - -
01.04.2020 05:00:00 - - - - - - - -
01.04.2020 04:00:00 9,6 7,4 4 2 NNW 1011,6 19 0,0
01.04.2020 03:00:00 9,8 7,7 5 3 WNW 1011,7 19 0,0
01.04.2020 02:00:00 10,3 8,4 9 5 WNW 1011,8 18 -
01.04.2020 01:00:00 11,0 8,7 13 7 WNW 1011,7 20 0,2
01.04.2020 00:00:00 11,6 8,4 11 6 WNW 1011,3 20 0,0
31.03.2020 23:00:00 12,5 8,6 8 4 WNW 1010,4 20 -
31.03.2020 22:00:00 13,3 8,6 9 5 WNW 1009,2 20 0,0
31.03.2020 21:00:00 14,5 10,3 16 9 WSW 1008,2 20 0,0
31.03.2020 20:00:00 15,1 10,9 22 12 WSW 1007,2 20 -
31.03.2020 19:00:00 16,5 11,0 28 15 WSW 1006,2 20 0,0
31.03.2020 18:00:00 17,2 11,2 29 16 WSW 1005,5 20 0,0
31.03.2020 17:00:00 17,8 10,9 29 16 WSW 1004,7 20 -
31.03.2020 16:00:00 17,8 10,9 29 16 SW 1004,7 20 0,0
31.03.2020 15:00:00 17,7 11,5 26 14 SW 1004,7 20 0,0
31.03.2020 14:00:00 17,6 12,3 24 13 SSW 1004,6 14 -
31.03.2020 13:00:00 16,6 12,5 21 11 SW 1004,5 19 0,0
31.03.2020 12:00:00 17,1 13,0 18 10 SW 1004,1 20 0,2
31.03.2020 11:00:00 16,8 13,3 15 8 SW 1003,7 14 -
31.03.2020 10:00:00 14,5 12,9 2 1 ESE 1003,8 20 0,0
31.03.2020 09:00:00 12,6 11,7 5 3 WSW 1003,4 20 0,0
31.03.2020 08:00:00 12,9 11,6 13 7 WSW 1002,6 12 -
31.03.2020 07:00:00 12,7 11,9 9 5 WSW 1002,3 20 0,0
31.03.2020 06:00:00 12,3 11,5 8 4 SW 1001,9 20 0,0
31.03.2020 05:00:00 12,9 12,0 11 6 SW 1001,7 20 -
31.03.2020 04:00:00 12,5 11,9 15 8 SE 1002,0 3,7 2,0
31.03.2020 03:00:00 12,4 11,8 15 8 ESE 1002,5 16 0,2
31.03.2020 02:00:00 12,0 11,4 13 7 ESE 1003,0 3,5 -
31.03.2020 01:00:00 12,1 11,2 13 7 SE 1004,7 2,5 1,0
31.03.2020 00:00:00 12,3 11,5 8 4 ENE 1005,2 13 0,4
30.03.2020 23:00:00 12,4 11,3 9 5 E 1005,8 20 -
30.03.2020 22:00:00 12,3 11,0 13 7 E 1005,8 18 0,8
30.03.2020 21:00:00 12,7 11,4 11 6 E 1006,7 20 0,0

tt = temperature
td = dewpoint
ff = wind speed
dd = wind direction
ppp = reduced air pressure
vv = visibility
rr = precipitation

Next stations